Williams, AZ

7:29 AM MST on August 24, 2016 (GMT -0700)
Williams

Weather History for KCMR - January, 2014

Change the Weather History Date:

Tuesday, January 7, 2014

  Actual Average (KFLG) Record (KFLG)
Temperature  
Mean Temperature 37 °F 30 °F  
Max Temperature 51 °F 42 °F 65 °F (1914)
Min Temperature 23 °F 17 °F -17 °F (1913)
Degree Days  
Heating Degree Days 28 35  
Month to date heating degree days 251  
Since 1 July heating degree days 3079  
Cooling Degree Days 0 0  
Month to date cooling degree days 0  
Year to date cooling degree days 0  
Moisture  
Dew Point 10 °F    
Average Humidity 38    
Maximum Humidity 64    
Minimum Humidity 16    
Precipitation  
Precipitation 0.00 in 0.07 in 1.42 in (1993)
Month to date precipitation 0.50  
Year to date precipitation 0.50  
Snow  
Snow 0.00 in 0.70 in 16.50 in (1937)
Month to date snowfall 4.8  
Since 1 July snowfall 33.9  
Snow Depth -    
Sea Level Pressure  
Sea Level Pressure 30.24 in    
Wind  
Wind Speed 9 mph (SSE)    
Max Wind Speed 14 mph    
Max Gust Speed 18 mph    
Visibility 10 miles    
Events      
T = Trace of Precipitation, MM = Missing Value Source: NWS Daily Summary

Daily Weather History Graph

Daily Weather History Graph

Search for Another Location

Airport or City:

Trip Planner

Search our weather history database for the weather conditions in past years. The results will help you decide how hot, cold, wet, or windy it might be!

Date:

Astronomy

Jan. 07, 2014 Rise Set
Actual Time 7:38 AM MST 5:32 PM MST
Civil Twilight 7:10 AM MST 6:00 PM MST
Nautical Twilight 6:38 AM MST 6:31 PM MST
Astronomical Twilight 6:07 AM MST 7:02 PM MST
Moon 11:45 AM MST (1/7) No Moon Set
Length of Visible Light 10h 50m
Length of Day
9h 54m
Waxing Crescent, 46% of the Moon is Illuminated
Jan 7
Waxing Crescent
Jan 7
First Quarter
Jan 15
Full
Jan 23
Last Quarter
Jan 30
New

Hourly Weather History & Observations

Time (MST) Temp. Windchill Dew Point Humidity Pressure Visibility Wind Dir Wind Speed Gust Speed Precip Events Conditions
12:15 AM 24.8 °F 15.3 °F 12.2 °F 59% 30.33 in 10.0 mi SE 9.2 mph - N/A   Clear
12:35 AM 24.8 °F 14.6 °F 12.2 °F 59% 30.32 in 10.0 mi SE 10.4 mph - N/A   Clear
12:55 AM 26.6 °F 18.2 °F 10.4 °F 51% 30.32 in 10.0 mi SE 8.1 mph - N/A   Clear
1:15 AM 26.6 °F 16.2 °F 10.4 °F 51% 30.31 in 10.0 mi SE 11.5 mph - N/A   Clear
1:35 AM 26.6 °F 17.5 °F 10.4 °F 51% 30.30 in 10.0 mi SE 9.2 mph - N/A   Clear
1:55 AM 26.6 °F 16.8 °F 10.4 °F 51% 30.30 in 10.0 mi SSE 10.4 mph - N/A   Clear
2:15 AM 26.6 °F 20.0 °F 8.6 °F 47% 30.31 in 10.0 mi SSE 5.8 mph - N/A   Clear
2:35 AM 23.0 °F 13.1 °F 10.4 °F 59% 30.31 in 10.0 mi SSE 9.2 mph - N/A   Clear
2:55 AM 24.8 °F 14.6 °F 10.4 °F 54% 30.31 in 10.0 mi SE 10.4 mph - N/A   Clear
3:15 AM 24.8 °F 14.6 °F 10.4 °F 54% 30.31 in 10.0 mi SE 10.4 mph - N/A   Clear
3:35 AM 24.8 °F 15.3 °F 10.4 °F 54% 30.31 in 10.0 mi SE 9.2 mph - N/A   Clear
3:55 AM 26.6 °F 16.8 °F 10.4 °F 51% 30.31 in 10.0 mi SE 10.4 mph - N/A   Clear
4:15 AM 26.6 °F 16.8 °F 8.6 °F 47% 30.30 in 10.0 mi SE 10.4 mph - N/A   Clear
4:35 AM 24.8 °F 14.0 °F 10.4 °F 54% 30.30 in 10.0 mi SE 11.5 mph - N/A   Clear
4:55 AM 26.6 °F 16.2 °F 8.6 °F 47% 30.29 in 10.0 mi SE 11.5 mph - N/A   Clear
5:15 AM 26.6 °F 16.2 °F 8.6 °F 47% 30.28 in 10.0 mi SE 11.5 mph - N/A   Clear
5:35 AM 28.4 °F 19.1 °F 8.6 °F 43% 30.28 in 10.0 mi SE 10.4 mph - N/A   Clear
5:55 AM 28.4 °F 19.1 °F 8.6 °F 43% 30.28 in 10.0 mi SE 10.4 mph - N/A   Clear
6:15 AM 30.2 °F 21.9 °F 8.6 °F 40% 30.28 in 10.0 mi SE 9.2 mph - N/A   Clear
6:35 AM 30.2 °F 21.3 °F 10.4 °F 44% 30.28 in 10.0 mi SE 10.4 mph - N/A   Clear
6:55 AM 32.0 °F 23.0 °F 8.6 °F 38% 30.27 in 10.0 mi SE 11.5 mph - N/A   Clear
7:15 AM 32.0 °F 24.8 °F 10.4 °F 41% 30.28 in 10.0 mi SE 8.1 mph - N/A   Clear
7:35 AM 32.0 °F 24.8 °F 10.4 °F 41% 30.27 in 10.0 mi SE 8.1 mph - N/A   Clear
7:55 AM 32.0 °F 24.2 °F 10.4 °F 41% 30.27 in 10.0 mi SE 9.2 mph - N/A   Clear
8:15 AM 32.0 °F 24.2 °F 10.4 °F 41% 30.27 in 10.0 mi SE 9.2 mph - N/A   Clear
8:35 AM 32.0 °F 24.2 °F 12.2 °F 44% 30.28 in 10.0 mi SE 9.2 mph - N/A   Clear
8:55 AM 33.8 °F 27.0 °F 10.4 °F 38% 30.27 in 10.0 mi SE 8.1 mph - N/A   Clear
9:15 AM 35.6 °F 29.9 °F 10.4 °F 35% 30.28 in 10.0 mi SE 6.9 mph - N/A   Clear
9:35 AM 37.4 °F 32.1 °F 14.0 °F 38% 30.28 in 10.0 mi SE 6.9 mph - N/A   Clear
9:55 AM 39.2 °F 35.0 °F 14.0 °F 36% 30.28 in 10.0 mi SE 5.8 mph - N/A   Clear
10:15 AM 41.0 °F 37.1 °F 14.0 °F 33% 30.28 in 10.0 mi SE 5.8 mph - N/A   Partly Cloudy
10:35 AM 44.6 °F 43.1 °F 14.0 °F 29% 30.29 in 10.0 mi SE 3.5 mph - N/A   Clear
10:55 AM 46.4 °F 45.2 °F 12.2 °F 25% 30.28 in 10.0 mi East 3.5 mph - N/A   Clear
11:15 AM 50.0 °F - 8.6 °F 19% 30.27 in 10.0 mi WSW 8.1 mph - N/A   Clear
11:35 AM 48.2 °F - 8.6 °F 20% 30.26 in 10.0 mi SW 11.5 mph - N/A   Clear
11:55 AM 50.0 °F - 8.6 °F 19% 30.25 in 10.0 mi SW 8.1 mph 16.1 mph N/A   Clear
12:15 PM 50.0 °F - 6.8 °F 17% 30.23 in 10.0 mi West 10.4 mph - N/A   Clear
12:35 PM 51.8 °F - 6.8 °F 16% 30.23 in 10.0 mi WSW 11.5 mph - N/A   Clear
12:55 PM 50.0 °F - 8.6 °F 19% 30.22 in 10.0 mi West 11.5 mph 18.4 mph N/A   Partly Cloudy
1:15 PM 51.8 °F - 8.6 °F 18% 30.21 in 10.0 mi West 13.8 mph 18.4 mph N/A   Mostly Cloudy
1:35 PM 51.8 °F - 6.8 °F 16% 30.20 in 10.0 mi West 11.5 mph 16.1 mph N/A   Mostly Cloudy
1:55 PM 51.8 °F - 6.8 °F 16% 30.20 in 10.0 mi SW 11.5 mph - N/A   Partly Cloudy
2:15 PM 50.0 °F - 6.8 °F 17% 30.19 in 10.0 mi SW 12.7 mph - N/A   Partly Cloudy
2:35 PM 50.0 °F - 6.8 °F 17% 30.19 in 10.0 mi SW 11.5 mph 17.3 mph N/A   Clear
2:55 PM 50.0 °F - 6.8 °F 17% 30.19 in 10.0 mi WSW 9.2 mph - N/A   Clear
3:15 PM 50.0 °F - 8.6 °F 19% 30.19 in 10.0 mi West 11.5 mph - N/A   Clear
3:35 PM 50.0 °F - 8.6 °F 19% 30.19 in 10.0 mi West 13.8 mph - N/A   Clear
3:55 PM 48.2 °F - 8.6 °F 20% 30.19 in 10.0 mi WSW 10.4 mph 17.3 mph N/A   Clear
4:15 PM 48.2 °F - 6.8 °F 19% 30.19 in 10.0 mi WSW 6.9 mph - N/A   Clear
4:35 PM 48.2 °F - 6.8 °F 19% 30.19 in 10.0 mi West 6.9 mph - N/A   Clear
4:55 PM 46.4 °F 42.9 °F 8.6 °F 22% 30.19 in 10.0 mi SW 6.9 mph - N/A   Clear
5:15 PM 46.4 °F 43.5 °F 8.6 °F 22% 30.18 in 10.0 mi SW 5.8 mph - N/A   Clear
5:35 PM 44.6 °F 42.2 °F 8.6 °F 23% 30.18 in 10.0 mi SW 4.6 mph - N/A   Clear
5:55 PM 41.0 °F 38.0 °F 8.6 °F 26% 30.18 in 10.0 mi SW 4.6 mph - N/A   Clear
6:15 PM 41.0 °F 39.0 °F 8.6 °F 26% 30.19 in 10.0 mi SSW 3.5 mph - N/A   Clear
6:35 PM 39.2 °F 34.2 °F 10.4 °F 31% 30.19 in 10.0 mi SW 6.9 mph - N/A   Clear
6:55 PM 39.2 °F 37.0 °F 8.6 °F 28% 30.20 in 10.0 mi SSW 3.5 mph - N/A   Clear
7:15 PM 39.2 °F 37.0 °F 8.6 °F 28% 30.20 in 10.0 mi SSW 3.5 mph - N/A   Clear
7:35 PM 39.2 °F - 8.6 °F 28% 30.20 in 10.0 mi Calm Calm - N/A   Clear
7:55 PM 35.6 °F - 10.4 °F 35% 30.20 in 10.0 mi Calm Calm - N/A   Clear
8:15 PM 32.0 °F 26.4 °F 12.2 °F 44% 30.20 in 10.0 mi SE 5.8 mph - N/A   Clear
8:35 PM 28.4 °F 20.4 °F 14.0 °F 55% 30.20 in 10.0 mi SSE 8.1 mph - N/A   Clear
8:55 PM 28.4 °F 20.4 °F 14.0 °F 55% 30.20 in 10.0 mi SSE 8.1 mph - N/A   Clear
9:15 PM 26.6 °F 17.5 °F 14.0 °F 59% 30.20 in 10.0 mi SE 9.2 mph - N/A   Clear
9:35 PM 28.4 °F 20.4 °F 14.0 °F 55% 30.20 in 10.0 mi SE 8.1 mph - N/A   Clear
9:55 PM 26.6 °F 18.2 °F 14.0 °F 59% 30.21 in 10.0 mi SE 8.1 mph - N/A   Clear
10:15 PM 26.6 °F 17.5 °F 14.0 °F 59% 30.21 in 10.0 mi SE 9.2 mph - N/A   Clear
10:35 PM 26.6 °F 18.2 °F 14.0 °F 59% 30.21 in 10.0 mi SE 8.1 mph - N/A   Clear
10:55 PM 26.6 °F 17.5 °F 14.0 °F 59% 30.21 in 10.0 mi SE 9.2 mph - N/A   Clear
11:15 PM 24.8 °F 16.1 °F 14.0 °F 64% 30.20 in 10.0 mi SE 8.1 mph - N/A   Clear
11:35 PM 24.8 °F 16.1 °F 12.2 °F 59% 30.20 in 10.0 mi SE 8.1 mph - N/A   Clear
11:55 PM 24.8 °F 16.1 °F 12.2 °F 59% 30.20 in 10.0 mi SE 8.1 mph - N/A   Clear